TimeCDT,TemperatureF,Dew PointF,Humidity,Sea Level PressureIn,VisibilityMPH,Wind Direction,Wind SpeedMPH,Gust SpeedMPH,PrecipitationIn,Events,Conditions,WindDirDegrees,DateUTC
12:53 AM,55.0,32.0,42,30.37,10.0,ENE,12.7,-,N/A,,Clear,60,2013-03-26 05:53:00
1:53 AM,53.1,34.0,48,30.38,10.0,NE,9.2,-,N/A,,Clear,40,2013-03-26 06:53:00
2:53 AM,53.1,30.9,43,30.38,10.0,NE,11.5,20.7,N/A,,Clear,40,2013-03-26 07:53:00
3:53 AM,51.1,32.0,48,30.38,10.0,ENE,12.7,-,N/A,,Clear,60,2013-03-26 08:53:00
4:53 AM,50.0,30.9,48,30.38,10.0,NE,15.0,-,N/A,,Clear,50,2013-03-26 09:53:00
5:53 AM,48.9,30.9,50,30.40,10.0,NE,11.5,-,N/A,,Clear,40,2013-03-26 10:53:00
6:53 AM,48.9,33.1,54,30.41,10.0,NE,10.4,-,N/A,,Clear,40,2013-03-26 11:53:00
7:53 AM,51.1,34.0,52,30.44,10.0,NE,12.7,19.6,N/A,,Clear,50,2013-03-26 12:53:00
8:53 AM,54.0,33.1,45,30.47,10.0,NE,11.5,-,N/A,,Clear,50,2013-03-26 13:53:00
9:53 AM,57.9,32.0,37,30.48,10.0,ENE,12.7,-,N/A,,Clear,60,2013-03-26 14:53:00
10:53 AM,61.0,34.0,36,30.48,10.0,East,13.8,-,N/A,,Clear,80,2013-03-26 15:53:00
11:53 AM,63.0,25.0,24,30.47,10.0,East,13.8,-,N/A,,Clear,80,2013-03-26 16:53:00
12:53 PM,64.0,24.1,22,30.45,10.0,East,15.0,-,N/A,,Clear,90,2013-03-26 17:53:00
1:53 PM,64.9,26.1,23,30.43,10.0,East,16.1,-,N/A,,Clear,90,2013-03-26 18:53:00
2:53 PM,64.9,24.1,21,30.39,10.0,East,16.1,-,N/A,,Clear,100,2013-03-26 19:53:00
3:53 PM,64.0,26.1,24,30.36,10.0,East,12.7,-,N/A,,Clear,90,2013-03-26 20:53:00
4:53 PM,63.0,30.9,30,30.35,10.0,SE,13.8,-,N/A,,Clear,130,2013-03-26 21:53:00
5:53 PM,61.0,30.9,32,30.34,10.0,SE,12.7,-,N/A,,Clear,130,2013-03-26 22:53:00
6:53 PM,60.1,32.0,35,30.34,10.0,SE,11.5,-,N/A,,Clear,140,2013-03-26 23:53:00
7:53 PM,57.0,33.1,40,30.35,10.0,SSE,8.1,-,N/A,,Clear,150,2013-03-27 00:53:00
8:53 PM,57.0,35.1,44,30.35,10.0,SSE,5.8,-,N/A,,Clear,150,2013-03-27 01:53:00
9:53 PM,57.0,34.0,42,30.36,10.0,SSE,8.1,-,N/A,,Clear,150,2013-03-27 02:53:00
10:53 PM,57.9,35.1,42,30.37,10.0,SSE,8.1,-,N/A,,Clear,150,2013-03-27 03:53:00
11:53 PM,57.9,36.0,44,30.36,10.0,SSE,5.8,-,N/A,,Clear,150,2013-03-27 04:53:00